Regional Weather Roundup
Issued by NWS

Home | Current Version | Previous Version | Text Only | Print | Product List | Glossary Off
Versions: 1 2 3 4 5 6 7 8 9 10 11 12 13 14 15 16 17 18 19 20 21 22 23 24 25 26 27 28 29 30 31 32 33 34 35 36 37 38 39 40 41 42 43 44 45 46 47 48 49 50

000
ASUS45 KSLC 020110
RWRUT
UTAH REGIONAL WEATHER ROUNDUP
NATIONAL WEATHER SERVICE SALT LAKE CITY UT
700 PM MDT SAT AUG 01 2015

UTZ001>011-023>025-020200-

NORTHERN UTAH

CITY           SKY/WX    TMP DP  RH WIND       PRES   REMARKS
BRIGHAM CITY   PTSUNNY   95  10   4 NE9       29.99F
HILL AFB       MOSUNNY   89  40  17 W12       30.04F
LOGAN          SUNNY     90  40  17 N8        30.00F
OGDEN          MOSUNNY   89  39  17 SW10      30.00F
PROVO AIRPORT  MOSUNNY   91  36  14 SW6       30.02F
SALT LAKE CITY PTSUNNY   92  30  11 W9        29.99F
VERNAL         PTSUNNY   91  19   7 SW3       30.04F
WENDOVER       MOSUNNY   93  30  10 S7        30.02F
HEBER CITY     PTSUNNY   90  28  11 W3        30.09F
WEST JORDAN    SUNNY     88  36  15 NW8       30.04F

$$

UTZ012>022-026-027-020200-

SOUTHERN/CENTRAL UTAH

CITY           SKY/WX    TMP DP  RH WIND       PRES   REMARKS
BLANDING       MOSUNNY   77  58  52 SE3       30.23F
BRYCE CANYON   CLOUDY    72  47  40 SE8       30.29F
CEDAR CITY     CLOUDY    77  52  41 SW15G24   30.14S
DELTA          PTSUNNY   93  24   8 CALM      30.01F
HANKSVILLE     PTSUNNY   90  50  25 S10       30.01F
MILFORD        CLOUDY    90  30  11 SE14G23   30.04F
MOAB/CYNLANDS  SUNNY     90  50  25 S9        30.00F
PRICE          MOSUNNY   90  31  12 S10       30.08F
ST GEORGE      MOCLDY    84  55  37 W14       29.99F
KANAB          CLOUDY    81  55  41 SW6       30.15F

$$

REGIONAL REPORTS     COLORADO/ARIZONA

CITY           SKY/WX    TMP DP  RH WIND       PRES   REMARKS
CRAIG, CO      CLOUDY    83  43  24 SW13      30.13S
GRAND JUNCTION CLOUDY    85  44  23 N15       30.06F
RIFLE          CLOUDY    83  43  24 W10       30.10S
MONTROSE       CLOUDY    74  49  41 SE25G36   30.17F
CORTEZ         SUNNY     77  55  46 CALM      30.16F
PAGE, AZ       PTSUNNY   90  48  23 NE6       30.00F
GRAND CANYON   PTSUNNY   72  52  49 N6        30.23F
KINGMAN        MOSUNNY   84  57  39 N12       30.02F
FLAGSTAFF      PTSUNNY   70  56  61 E10       30.25F

$$

REGIONAL REPORTS    NEVADA/IDAHO/WYOMING

CITY           SKY/WX    TMP DP  RH WIND       PRES   REMARKS
LAS VEGAS, NV  CLOUDY    84  57  39 NW9       29.92F
ELY            CLOUDY    84  32  15 SW10      30.16F
ELKO           MOSUNNY   94  25   8 N8        30.04F
POCATELLO, ID  SUNNY     92  30  11 E3        30.02F
BURLEY         PTSUNNY   88  41  19 S5        29.98F
EVANSTON, WY   MOSUNNY   84  22  10 N8G16     30.23F
ROCK SPRINGS   MOSUNNY   81  24  12 SW6       30.17F
KEMMERER       MOSUNNY  N/A N/A N/A NW12G17   30.23F

$$



USA.gov is the U.S. government's official web portal to all federal, state and local government web resources and services.